Content
SEND FEEDBACK

Daily
Averages
Monthly
Summary
Australia

DERBY, WESTERN AUSTRALIA


Home > Oceania > Australia > Western Australia
Elevation: 23 feet     Latitude: 17 22S     Longitude: 123 40E

WEATHER
 
SELECT A DAY
Number of Records: 128,524;   Date Range: 10/22/03 - 7/9/14
 
SHARE

PRINT THIS DATA

[ ← Previous Day ]
WEATHER ALMANAC - FEBRUARY 13, 2013
[ Next Day → ]
[ °C ]   °F
Weather ElementAverageHighLow
Temperature87.7 °F101 °F (3:00 pm)75.2 °F (6:00 am)
Dewpoint71.9 °F77 °F (11:00 pm)68 °F (1:00 pm)
Humidity60.3 %89 % (6:00 am)25 % (3:00 pm)
Barometer29.75 in29.80 in (3:00 am)29.65 in (3:00 pm)
Wind Speed5.1 mph18.4 mph (4:04 pm)
Wind Gust29.9 mph (4:04 pm)
Weather ElementAverage
Wind DirectionSSE (172.9 °)

Weather ElementTotal
Precipitation---
Cooling Degree Days23.1 (Base 65)
Growing Degree Days38.1 (Base 50)
Averaged from 31 records on February 13, 2013
WEATHER CONDITIONS BREAKOUT
WIND DIRECTION BREAKOUT
WEATHER BY HOUR - FEBRUARY 13, 2013
[ °C ]   °F
Local TimeTemperatureDewpointHumidityBarometerVisibilityWind DirectionWind SpeedGust SpeedPrecipitationEventsConditions
12:00 AM82.4 °F73.4 °F74 %29.77 inWest (280°)3.5 mph
1:00 AM80.6 °F73.4 °F79 %29.77 inSW (230°)4.6 mph
2:00 AM80.6 °F73.4 °F79 %29.77 inCalm
3:00 AM81.0 °F72.0 °F69 %29.79 inEast (90°)8.1 mph
3:00 AM80.6 °F73.4 °F79 %29.80 inEast (90°)8.1 mph
4:00 AM78.8 °F71.6 °F78 %29.77 inESE (110°)2.3 mph
5:00 AM77.0 °F71.6 °F83 %29.77 inCalm
6:00 AM75.2 °F71.6 °F89 %29.80 inENE (60°)1.2 mph
6:00 AM76.0 °F71.0 °F82 %29.79 inENE (60°)1.2 mph
7:00 AM80.6 °F73.4 °F79 %29.80 inNNE (20°)2.3 mph
8:00 AM86.0 °F71.6 °F62 %29.80 inWest (280°)1.2 mph
9:00 AM89.0 °F71.0 °F46 %29.80 inNW (310°)3.5 mph
9:00 AM89.6 °F71.6 °F55 %29.80 inNW (310°)3.5 mph
10:00 AM93.2 °F71.6 °F49 %29.80 inWSW (240°)6.9 mph
11:00 AM96.8 °F69.8 °F41 %29.77 inSE (140°)6.9 mph
12:00 PM96.8 °F69.8 °F41 %29.74 inSW (220°)5.8 mph
12:00 PM97.0 °F70.0 °F32 %29.75 inSW (220°)5.8 mph
1:00 PM100.4 °F68.0 °F35 %29.71 inSouth (190°)6.9 mph
2:00 PM100.4 °F68.0 °F35 %29.68 inSSW (210°)8.1 mph
3:00 PM101.0 °F68.0 °F25 %29.65 inSW (220°)5.8 mph
3:00 PM100.4 °F68.0 °F35 %29.65 inSW (220°)5.8 mph
4:04 PM86.0 °F71.6 °F62 %29.68 inEast (80°)18.4 mph29.9 mph
5:00 PM89.6 °F71.6 °F55 %29.68 inSSE (160°)11.5 mph
6:00 PM91.4 °F71.6 °F52 %29.68 inSouth (180°)5.8 mph
6:00 PM91.0 °F72.0 °F44 %29.67 inSouth (180°)5.8 mph
7:00 PM87.8 °F71.6 °F58 %29.71 inNNW (340°)6.9 mph
8:00 PM87.8 °F75.2 °F66 %29.74 inNNW (340°)5.8 mph
9:00 PM86.0 °F76.0 °F65 %29.74 inWest (280°)3.5 mph
9:00 PM86.0 °F75.2 °F70 %29.74 inWest (280°)3.5 mph
10:00 PM86.0 °F75.2 °F70 %29.74 inCalm
11:00 PM84.2 °F77.0 °F79 %29.74 inNNE (20°)4.6 mph
Hourly data recorded from YDBY, located miles away from Derby, Western Australia







STORIES FROM OUR PARTNERS